| time (UTC) | temp F | wind direction | speed knots | gust knots | rain 1hr in | rain 24hr in | rain mn in | humidity % | barometer mb |
| 20260508090036 | 53 | 57 | 2.6 | 4.3 | 0.00 | 0.00 | 0.00 | 79 | 1014.1 |
| 20260508084530 | 53 | 92 | 3.5 | 6.1 | 0.00 | 0.00 | 0.00 | 79 | 1014.1 |
| 20260508083028 | 53 | 118 | 0.9 | 3.5 | 0.00 | 0.00 | 0.00 | 79 | 1014.1 |
| 20260508081527 | 52 | 95 | 2.6 | 6.1 | 0.00 | 0.00 | 0.00 | 80 | 1013.9 |
| 20260508080049 | 52 | 105 | 1.7 | 4.3 | 0.00 | 0.00 | 0.00 | 81 | 1013.7 |
| 20260508074521 | 52 | 162 | 3.5 | 5.2 | 0.00 | 0.00 | 0.00 | 81 | 1013.7 |
| 20260508073023 | 51 | 141 | 4.3 | 6.1 | 0.00 | 0.00 | 0.00 | 81 | 1013.6 |
| 20260508071516 | 51 | 224 | 0.9 | 1.7 | 0.00 | 0.00 | 0.00 | 81 | 1013.5 |
| 20260508070021 | 50 | 224 | 0.0 | 2.6 | 0.00 | 0.00 | 0.00 | 81 | 1013.5 |
| 20260508064533 | 50 | 221 | 1.7 | 4.3 | 0.00 | 0.00 | 0.00 | 82 | 1013.5 |
| 20260508063011 | 50 | 224 | 0.9 | 3.5 | 0.00 | 0.00 | 0.00 | 82 | 1013.3 |
| 20260508061512 | 49 | 199 | 1.7 | 2.6 | 0.00 | 0.00 | 0.00 | 82 | 1013.1 |
| 20260508060008 | 49 | 199 | 0.0 | 0.9 | 0.00 | 0.00 | 0.00 | 82 | 1013.0 |
| 20260508054507 | 49 | 199 | 0.0 | 2.6 | 0.00 | 0.00 | 0.00 | 82 | 1013.0 |
| 20260508053006 | 48 | 175 | 0.0 | 4.3 | 0.00 | 0.00 | 0.00 | 82 | 1012.8 |
| 20260508051504 | 48 | 202 | 0.9 | 4.3 | 0.00 | 0.00 | 0.00 | 81 | 1012.9 |
| 20260508050007 | 48 | 220 | 2.6 | 6.1 | 0.00 | 0.00 | 0.00 | 81 | 1012.8 |
| 20260508044503 | 49 | 208 | 2.6 | 6.1 | 0.00 | 0.00 | 0.00 | 81 | 1012.6 |
| 20260508043002 | 49 | 193 | 7.0 | 8.7 | 0.00 | 0.00 | 0.00 | 81 | 1012.5 |
| 20260508041503 | 49 | 213 | 6.1 | 8.7 | 0.00 | 0.00 | 0.00 | 81 | 1012.4 |
| 20260508040114 | 49 | 193 | 5.2 | 7.8 | 0.00 | 0.00 | 0.00 | 81 | 1012.4 |
| 20260508034600 | 48 | 359 | 5.2 | 8.7 | 0.00 | 0.00 | 0.00 | 81 | 1012.4 |
| 20260508033100 | 48 | 191 | 5.2 | 9.6 | 0.00 | 0.00 | 0.00 | 81 | 1012.4 |
| 20260508031559 | 49 | 219 | 3.5 | 7.8 | 0.00 | 0.00 | 0.00 | 81 | 1012.3 |
| 20260508030058 | 49 | 230 | 4.3 | 7.8 | 0.00 | 0.00 | 0.00 | 81 | 1012.5 |
| 20260508024557 | 49 | 217 | 2.6 | 7.0 | 0.00 | 0.00 | 0.00 | 81 | 1012.4 |
| 20260508023057 | 48 | 218 | 4.3 | 7.8 | 0.00 | 0.00 | 0.00 | 81 | 1012.5 |
| 20260508021556 | 48 | 206 | 5.2 | 8.7 | 0.00 | 0.00 | 0.00 | 81 | 1012.4 |
| 20260508020057 | 48 | 224 | 4.3 | 7.0 | 0.00 | 0.00 | 0.00 | 81 | 1012.4 |
| 20260508014553 | 48 | 224 | 3.5 | 5.2 | 0.00 | 0.00 | 0.00 | 81 | 1012.4 |
| 20260508013052 | 48 | 237 | 1.7 | 5.2 | 0.00 | 0.00 | 0.00 | 81 | 1012.4 |
| 20260508011550 | 48 | 233 | 4.3 | 7.8 | 0.00 | 0.00 | 0.00 | 81 | 1012.4 |
| 20260508010050 | 48 | 210 | 4.3 | 7.8 | 0.00 | 0.00 | 0.00 | 81 | 1012.4 |
| 20260508004552 | 49 | 231 | 5.2 | 9.6 | 0.00 | 0.00 | 0.00 | 80 | 1012.4 |
| 20260508003050 | 49 | 216 | 3.5 | 7.8 | 0.00 | 0.00 | 0.00 | 80 | 1012.5 |
| 20260508001545 | 49 | 235 | 3.5 | 7.0 | 0.00 | 0.00 | 0.00 | 80 | 1012.4 |
| 20260508000043 | 49 | 214 | 3.5 | 7.8 | 0.00 | 0.00 | 0.00 | 80 | 1012.5 |
| 20260507234552 | 49 | 207 | 6.1 | 9.6 | 0.00 | 0.00 | 0.00 | 80 | 1012.4 |
| 20260507233058 | 50 | 196 | 6.1 | 9.6 | 0.00 | 0.00 | 0.00 | 80 | 1012.5 |
| 20260507231539 | 50 | 187 | 7.0 | 11.3 | 0.00 | 0.00 | 0.00 | 80 | 1012.4 |
| 20260507230038 | 50 | 203 | 8.7 | 12.2 | 0.00 | 0.00 | 0.00 | 79 | 1012.3 |
| 20260507224536 | 50 | 195 | 7.8 | 13.9 | 0.00 | 0.00 | 0.00 | 79 | 1012.3 |
| 20260507223046 | 50 | 194 | 7.8 | 13.0 | 0.00 | 0.00 | 0.00 | 78 | 1012.2 |
| 20260507221536 | 51 | 196 | 7.0 | 13.0 | 0.00 | 0.00 | 0.00 | 78 | 1012.2 |
| 20260507220038 | 51 | 199 | 10.4 | 15.6 | 0.00 | 0.00 | 0.00 | 78 | 1012.1 |
| 20260507214533 | 51 | 215 | 7.8 | 12.2 | 0.00 | 0.00 | 0.00 | 77 | 1012.1 |
| 20260507213034 | 51 | 208 | 8.7 | 13.9 | 0.00 | 0.00 | 0.00 | 77 | 1012.0 |
| 20260507211540 | 51 | 189 | 8.7 | 13.0 | 0.00 | 0.00 | 0.00 | 76 | 1012.1 |
| 20260507210038 | 52 | 193 | 7.0 | 9.6 | 0.00 | 0.00 | 0.00 | 75 | 1012.0 |
| 20260507204536 | 52 | 208 | 7.8 | 10.4 | 0.00 | 0.00 | 0.00 | 74 | 1012.0 |
| 20260507203031 | 52 | 195 | 6.1 | 8.7 | 0.00 | 0.00 | 0.00 | 73 | 1011.9 |
| 20260507201530 | 52 | 220 | 6.1 | 10.4 | 0.00 | 0.00 | 0.00 | 72 | 1011.8 |
| 20260507200031 | 52 | 208 | 5.2 | 9.6 | 0.00 | 0.00 | 0.00 | 73 | 1011.6 |
| 20260507194545 | 53 | 189 | 5.2 | 7.8 | 0.00 | 0.00 | 0.00 | 72 | 1011.5 |
| 20260507193030 | 54 | 199 | 6.1 | 8.7 | 0.00 | 0.00 | 0.00 | 72 | 1011.4 |
| 20260507191528 | 54 | 206 | 2.6 | 7.8 | 0.00 | 0.00 | 0.00 | 72 | 1011.3 |
| 20260507190040 | 55 | 203 | 3.5 | 7.0 | 0.00 | 0.00 | 0.00 | 72 | 1011.2 |
| 20260507184538 | 54 | 189 | 2.6 | 6.1 | 0.00 | 0.00 | 0.00 | 73 | 1011.2 |
| 20260507183030 | 55 | 184 | 4.3 | 8.7 | 0.00 | 0.00 | 0.00 | 71 | 1011.0 |
| 20260507181526 | 55 | 214 | 2.6 | 6.1 | 0.00 | 0.00 | 0.00 | 71 | 1010.9 |
| 20260507180028 | 55 | 222 | 1.7 | 7.8 | 0.00 | 0.00 | 0.00 | 71 | 1010.9 |
| 20260507174532 | 55 | 258 | 6.1 | 8.7 | 0.00 | 0.00 | 0.00 | 72 | 1010.9 |
| 20260507173040 | 55 | 226 | 3.5 | 7.0 | 0.00 | 0.00 | 0.00 | 73 | 1011.0 |
| 20260507171524 | 55 | 211 | 4.3 | 8.7 | 0.00 | 0.00 | 0.00 | 74 | 1011.0 |
| 20260507170024 | 55 | 209 | 5.2 | 10.4 | 0.00 | 0.00 | 0.00 | 75 | 1011.0 |
| 20260507164533 | 55 | 210 | 4.3 | 8.7 | 0.00 | 0.00 | 0.00 | 75 | 1011.0 |
| 20260507163025 | 55 | 214 | 5.2 | 9.6 | 0.00 | 0.00 | 0.00 | 74 | 1010.9 |
| 20260507161523 | 55 | 192 | 7.8 | 13.9 | 0.00 | 0.00 | 0.00 | 70 | 1011.0 |
| 20260507160026 | 56 | 185 | 9.6 | 16.5 | 0.00 | 0.00 | 0.00 | 70 | 1011.1 |
| 20260507154521 | 55 | 210 | 7.8 | 12.2 | 0.00 | 0.00 | 0.00 | 72 | 1011.1 |
| 20260507153026 | 55 | 98 | 2.6 | 6.1 | 0.00 | 0.00 | 0.00 | 75 | 1011.1 |
| 20260507151519 | 54 | 86 | 3.5 | 6.1 | 0.00 | 0.00 | 0.00 | 78 | 1011.2 |
| 20260507150018 | 53 | 119 | 1.7 | 3.5 | 0.00 | 0.00 | 0.00 | 79 | 1011.2 |
| 20260507144517 | 54 | 109 | 1.7 | 2.6 | 0.00 | 0.00 | 0.00 | 80 | 1011.4 |
| 20260507143022 | 53 | 104 | 0.0 | 3.5 | 0.00 | 0.00 | 0.00 | 80 | 1011.4 |
| 20260507141519 | 54 | 62 | 3.5 | 4.3 | 0.00 | 0.00 | 0.00 | 81 | 1011.7 |
| 20260507140020 | 54 | 24 | 0.9 | 1.7 | 0.00 | 0.00 | 0.00 | 80 | 1011.7 |
| 20260507134515 | 54 | 16 | 0.9 | 2.6 | 0.00 | 0.00 | 0.00 | 80 | 1011.5 |
| 20260507133015 | 54 | 33 | 1.7 | 4.3 | 0.00 | 0.00 | 0.00 | 80 | 1011.6 |
| 20260507131518 | 54 | 359 | 3.5 | 4.3 | 0.00 | 0.00 | 0.00 | 78 | 1011.7 |
| 20260507130013 | 54 | 359 | 1.7 | 4.3 | 0.00 | 0.00 | 0.00 | 77 | 1011.6 |
| 20260507124519 | 54 | 359 | 2.6 | 5.2 | 0.00 | 0.00 | 0.00 | 77 | 1011.6 |
| 20260507123014 | 55 | 343 | 1.7 | 4.3 | 0.00 | 0.00 | 0.00 | 74 | 1011.7 |
| 20260507121514 | 56 | 338 | 3.5 | 7.0 | 0.00 | 0.00 | 0.00 | 73 | 1011.6 |
| 20260507120011 | 57 | 359 | 3.5 | 7.0 | 0.00 | 0.00 | 0.00 | 71 | 1011.7 |
| 20260507114511 | 59 | 254 | 1.7 | 8.7 | 0.00 | 0.00 | 0.00 | 65 | 1011.7 |
| 20260507113024 | 58 | 213 | 1.7 | 6.1 | 0.00 | 0.00 | 0.00 | 68 | 1011.6 |
| 20260507111504 | 56 | 213 | 4.3 | 8.7 | 0.00 | 0.00 | 0.00 | 69 | 1011.7 |
| 20260507110004 | 56 | 212 | 3.5 | 6.1 | 0.00 | 0.00 | 0.00 | 69 | 1011.8 |
| 20260507104559 | 56 | 201 | 5.2 | 8.7 | 0.00 | 0.00 | 0.00 | 70 | 1011.9 |
| 20260507103058 | 55 | 193 | 7.0 | 9.6 | 0.00 | 0.00 | 0.00 | 70 | 1011.9 |
| 20260507101554 | 54 | 174 | 7.8 | 13.0 | 0.00 | 0.00 | 0.00 | 71 | 1011.9 |
| 20260507100051 | 55 | 195 | 3.5 | 7.8 | 0.00 | 0.00 | 0.00 | 70 | 1012.0 |
| 20260507094547 | 55 | 191 | 2.6 | 8.7 | 0.00 | 0.00 | 0.00 | 70 | 1012.0 |
| 20260507093042 | 55 | 218 | 4.3 | 9.6 | 0.00 | 0.00 | 0.00 | 71 | 1011.9 |
| 20260507091542 | 54 | 231 | 3.5 | 7.8 | 0.00 | 0.00 | 0.00 | 73 | 1012.0 |